Simultaneous Nadir Overpasses (SNOs) Predictions

Prediction of SNOs between NOAA-20 and METOP-B Satellite Orbit:

Table of predicted SNOs for the next 14.0 days since TLE Epoch: 8/3/2018
Index Date (NOAA-20) Time (NOAA-20) Lat,Lon (NOAA-20) SZA (NOAA-20 ) Date (METOP-B) Time (METOP-B) Lat,Lon (METOP-B) SZA (METOP-B ) Distance(km) Time Diff (sec)
1 08/05/2018 11:12:05 -73.60,-178.17 123.02 08/05/2018 11:13:12 -73.52,-175.40 123.27 87.55 67
2 08/05/2018 12:02:47 73.39, -10.40 56.76 08/05/2018 12:03:56 73.32, -8.53 56.56 60.35 69
3 08/05/2018 12:53:29 -73.30, 157.12 123.34 08/05/2018 12:54:39 -73.24, 158.64 123.50 49.00 70
4 08/05/2018 13:44:11 73.10, -35.12 56.45 08/05/2018 13:45:23 73.04, -34.47 56.34 21.97 72
5 08/05/2018 14:34:53 -73.00, 132.40 123.65 08/05/2018 14:36:06 -72.97, 132.71 123.72 10.78 73
6 08/05/2018 15:25:37 72.90, -60.07 56.25 08/05/2018 15:26:47 72.91, -60.08 56.25 1.49 70
7 08/05/2018 16:16:21 -72.91, 107.23 123.73 08/05/2018 16:17:29 -72.89, 107.21 123.76 1.59 68
8 08/05/2018 17:07:07 72.90, -85.45 56.27 08/05/2018 17:08:09 72.89, -85.47 56.24 1.82 62
9 08/05/2018 17:57:51 -72.91, 81.85 123.71 08/05/2018 17:58:50 -72.92, 81.93 123.72 2.73 59
10 08/05/2018 18:48:37 72.91,-110.83 56.30 08/05/2018 18:49:30 72.91,-110.75 56.29 2.71 53
11 08/05/2018 19:39:21 -72.91, 56.47 123.69 08/05/2018 19:40:12 -72.90, 56.53 123.72 3.08 51
12 08/05/2018 20:30:07 72.91,-136.22 56.32 08/05/2018 20:30:52 72.89,-136.15 56.28 3.38 45
13 08/05/2018 21:20:50 -72.87, 31.19 123.72 08/05/2018 21:21:34 -72.87, 31.14 123.73 1.55 44
14 08/05/2018 22:11:36 72.86,-161.49 56.29 08/05/2018 22:12:14 72.86,-161.54 56.28 1.45 38
15 08/05/2018 23:02:20 -72.87, 5.81 123.70 08/05/2018 23:02:55 -72.90, 5.86 123.68 3.30 35
16 08/05/2018 23:53:06 72.87, 173.12 56.31 08/05/2018 23:53:35 72.89, 173.18 56.32 3.01 29
17 08/06/2018 00:43:50 -72.88, -19.58 123.67 08/06/2018 00:44:17 -72.87, -19.53 123.69 1.45 27
18 08/06/2018 01:34:36 72.87, 147.74 56.34 08/06/2018 01:34:57 72.87, 147.79 56.32 1.64 21
19 08/06/2018 02:25:19 -72.83, -44.85 123.71 08/06/2018 02:25:39 -72.85, -44.92 123.69 3.17 20
20 08/06/2018 03:16:05 72.83, 122.46 56.30 08/06/2018 03:16:19 72.84, 122.39 56.32 2.87 14
21 08/06/2018 04:06:49 -72.83, -70.23 123.68 08/06/2018 04:07:01 -72.82, -70.31 123.69 2.79 12
22 08/06/2018 04:57:35 72.83, 97.08 56.33 08/06/2018 04:57:41 72.82, 97.00 56.32 2.97 6
23 08/06/2018 05:48:19 -72.84, -95.62 123.66 08/06/2018 05:48:22 -72.85, -95.60 123.65 1.60 3
24 08/06/2018 06:39:05 72.83, 71.70 56.35 08/06/2018 06:39:02 72.84, 71.72 56.36 1.17 3
25 08/06/2018 07:29:49 -72.84,-121.00 123.64 08/06/2018 07:29:44 -72.83,-120.99 123.65 1.69 5
26 08/06/2018 08:20:35 72.84, 46.32 56.37 08/06/2018 08:20:24 72.82, 46.33 56.36 2.23 11
27 08/06/2018 09:11:18 -72.79,-146.28 123.67 08/06/2018 09:11:06 -72.80,-146.38 123.65 3.51 12
28 08/06/2018 10:02:04 72.79, 21.04 56.34 08/06/2018 10:01:46 72.79, 20.94 56.35 3.42 18
29 08/06/2018 10:52:47 -72.80,-171.66 123.64 08/06/2018 10:52:26 -72.83,-171.67 123.61 3.29 21
30 08/06/2018 11:43:33 72.79, -4.34 56.37 08/06/2018 11:43:06 72.82, -4.35 56.40 2.72 27
31 08/06/2018 12:34:17 -72.80, 162.96 123.62 08/06/2018 12:33:48 -72.80, 162.94 123.61 0.50 29
32 08/06/2018 13:25:03 72.80, -29.73 56.39 08/06/2018 13:24:28 72.79, -29.74 56.39 0.69 35
33 08/06/2018 14:15:47 -72.81, 137.58 123.60 08/06/2018 14:15:10 -72.78, 137.55 123.61 3.11 37
34 08/06/2018 15:06:33 72.80, -55.11 56.41 08/06/2018 15:05:49 72.82, -55.03 56.44 3.35 44
35 08/06/2018 15:57:17 -72.81, 112.19 123.57 08/06/2018 15:56:31 -72.80, 112.27 123.57 2.50 46
36 08/06/2018 16:48:03 72.81, -80.49 56.44 08/06/2018 16:47:11 72.80, -80.42 56.43 2.72 52
37 08/06/2018 17:38:46 -72.76, 86.92 123.61 08/06/2018 17:37:53 -72.78, 86.88 123.57 2.31 53
38 08/06/2018 18:29:32 72.76,-105.77 56.40 08/06/2018 18:28:33 72.77,-105.81 56.43 1.80 59
39 08/06/2018 19:20:16 -72.77, 61.53 123.58 08/06/2018 19:19:15 -72.76, 61.49 123.58 1.97 61
40 08/06/2018 20:11:02 72.76,-131.15 56.43 08/06/2018 20:09:55 72.75,-131.20 56.43 2.52 67
41 08/06/2018 21:01:46 -72.77, 36.15 123.56 08/06/2018 21:00:36 -72.78, 36.20 123.53 2.07 70
42 08/06/2018 21:52:31 72.72,-156.43 56.40 08/06/2018 21:51:17 72.72,-156.59 56.43 5.34 74
43 08/06/2018 22:43:14 -72.67, 10.98 123.65 08/06/2018 22:42:00 -72.66, 10.60 123.62 12.56 74
44 08/06/2018 23:33:55 72.42, 178.81 56.08 08/06/2018 23:32:44 72.44, 177.51 56.21 43.83 71
45 08/07/2018 00:24:38 -72.37, -13.79 123.96 08/07/2018 00:23:27 -72.38, -15.30 123.84 50.66 71
46 08/07/2018 01:15:19 72.11, 154.03 55.77 08/07/2018 01:14:12 72.11, 151.52 55.94 85.64 67
47 08/07/2018 02:06:02 -72.07, -38.58 124.27 08/07/2018 02:04:55 -72.04, -41.27 124.11 92.41 67




NCC Satellite Simultaneous Nadir Overpasses (SNOs) Prediction Service
